View from above orbital plane
|
View from above satellite
|
Ground track
|
The orbit data is extracted from the following two-line orbital elements,
1 45606U 20029A 21097.68720233 0.00000000 00000-0 00000-0 0 07
2 45606 45.0350 259.0260 0010414 103.3052 256.6944 15.60032799 06
Epoch (UTC): | 07 April 2021 16:29:34 |
Eccentricity: | 0.0010414 |
inclination: | 45.0350° |
perigee height: | 380 km |
apogee height: | 394 km |
right ascension of ascending node: | 259.0260° |
argument of perigee: | 103.3052° |
revolutions per day: | 15.60032799 |
mean anomaly at epoch: | 256.6944° |
orbit number at epoch: | 0 |
The dashed part of the orbit path shows where the satellite is in the earth's shadow,
|
|